Location: Pian di Sc�
(43.6333°N, 11.5500°E)
Time: 14:12:35
(UTC+00:00)

MSX - Pass Details

Date: 07 August 2020
Orbit: 895 x 905 km, 98.8° (Epoch: 24 September)

Event Time Altitude Azimuth Distance (km) Brightness Sun altitude
Rises 03:05:50 0° 11° (N) 3,530 7.7 -10.9°
Reaches altitude 10° 03:08:15 10° 9° (N) 2,587 6.9 -10.5°
Maximum altitude 03:13:58 67° 288° (WNW) 979 3.9 -9.7°
Drops below altitude 10° 03:19:39 10° 207° (SSW) 2,576 5.7 -8.8°
Enters shadow 03:20:42 - 206° (SSW) 2,982 6.0 -8.7°
